Regional Weather Roundup
Issued by NWS

Home | Current Version | Previous Version | Graphics & Text | Print | Product List | Glossary On
Versions: 1 2 3 4 5 6 7 8 9 10 11 12 13 14 15 16 17 18 19 20 21 22 23 24 25 26 27 28 29 30 31 32 33 34 35 36 37 38 39 40 41 42 43 44 45 46 47 48 49 50
000
ASUS43 KBIS 221310
RWRND
NORTH DAKOTA REGIONAL WEATHER ROUNDUP
NATIONAL WEATHER SERVICE EASTERN NORTH DAKOTA/GRAND FORKS ND
800 AM CDT MON MAY 22 2017

  NOTE: "FAIR" INDICATES FEW OR NO CLOUDS BELOW 12,000 FEET WITH NO
  SIGNIFICANT WEATHER AND/OR OBSTRUCTIONS TO VISIBILITY.

NDZ001>003-009>011-017-221400-
...NORTHWEST NORTH DAKOTA...

CITY           SKY/WX    TMP DP  RH WIND       PRES   REMARKS
WILLISTON      CLOUDY    49  43  80 N8        30.01R
MINOT          FAIR      52  41  66 NW9       29.96R
MINOT AFB      FAIR      48  42  79 NW7       29.96R
$$

NDZ018>021-031>035-040>046-221400-
...SOUTHWEST NORTH DAKOTA...

CITY           SKY/WX    TMP DP  RH WIND       PRES   REMARKS
BISMARCK       PTSUNNY   50  37  61 NE5       29.94R
DICKINSON      PTSUNNY   45  40  82 W13       29.95R
GARRISON         N/A     47  40  76 N3        29.95R
HETTINGER      FAIR      47  43  86 NW17      29.98R
$$

NDZ004>008-012>016-024-026-027-054-221400-
...NORTHEAST NORTH DAKOTA...

CITY           SKY/WX    TMP DP  RH WIND       PRES   REMARKS
GRAND FORKS    CLOUDY    51  45  79 NW15      29.83S
GRAND FORKS AF FAIR      48  43  81 N13       29.84S
DEVILS LAKE    CLOUDY    48  40  73 NW12      29.90R
$$

NDZ022-023-025-028>030-036>039-047>053-221400-
...SOUTHEAST NORTH DAKOTA...

CITY           SKY/WX    TMP DP  RH WIND       PRES   REMARKS
JAMESTOWN      CLOUDY    48  43  82 N9        29.89R
FARGO          PTSUNNY   49  43  80 W9G23     29.84F
WAHPETON       FAIR      45  41  87 W7        29.87F
$$




USA.gov is the U.S. government's official web portal to all federal, state and local government web resources and services.